Weather History for South Haven, MI

Change the Weather History Date:

Monday, July 8, 2013

  Actual Average (KBIV) Record (KBIV)
Temperature  
Mean Temperature 74 °F 72 °F  
Max Temperature 79 °F 82 °F 97 °F (1988)
Min Temperature 70 °F 62 °F 47 °F (1954)
Degree Days  
Heating Degree Days 0 0  
Month to date heating degree days 0  
Since 1 June heating degree days 48  
Since 1 July heating degree days 0  
Cooling Degree Days 10 8  
Month to date cooling degree days 58  
Year to date cooling degree days 246  
Since 1 June cooling degree days 204  
Growing Degree Days 24 (Base 50)    
Moisture  
Dew Point 69 °F    
Average Humidity 82    
Maximum Humidity 98    
Minimum Humidity 67    
Precipitation  
Precipitation 0.00 in 0.08 in 1.15 in (1997)
Month to date precipitation 0.79  
Year to date precipitation 17.60  
Sea Level Pressure  
Sea Level Pressure 29.99 in    
Wind  
Wind Speed 5 mph (SW)    
Max Wind Speed 15 mph    
Max Gust Speed 23 mph    
Visibility 8 miles    
Events Rain    
T = Trace of Precipitation, MM = Missing Value Source: NWS Daily Summary

Daily Weather History Graph

Daily Weather History Graph

Search for Another Location

Airport:

Trip Planner

Search our weather history database for the weather conditions in past years. The results will help you decide how hot, cold, wet, or windy it might be!

Date:

Astronomy

Jul. 08, 2013 Rise Set
Actual Time 6:16 AM EDT 9:23 PM EDT
Civil Twilight 5:42 AM EDT 9:57 PM EDT
Nautical Twilight 4:58 AM EDT 10:41 PM EDT
Astronomical Twilight 4:06 AM EDT 11:33 PM EDT
Moon 6:46 AM EDT (7/8) 9:23 PM EDT (7/8)
Length of Visible Light 16h 15m
Length of Day
15h 07m
Waxing Crescent, 0% of the Moon is Illuminated
Jul 8
Waxing Crescent
Jul 15
First Quarter
Jul 22
Full
Jul 29
Last Quarter
Aug 6
New

Hourly Weather History & Observations

Time (EDT) Temp. Dew Point Humidity Pressure Visibility Wind Dir Wind Speed Gust Speed Precip Events Conditions
12:14 AM 74.7 °F 70.9 °F 88% 30.00 in 2.5 mi Calm Calm - N/A   Clear
12:35 AM 73.8 °F 70.9 °F 91% 30.00 in 5.0 mi Calm Calm - N/A   Clear
12:55 AM 73.6 °F 70.9 °F 91% 30.01 in 3.0 mi South 3.5 mph - N/A   Clear
1:14 AM 73.6 °F 70.7 °F 91% 30.00 in 7.0 mi Calm Calm - N/A   Clear
1:35 AM 73.8 °F 70.9 °F 91% 30.00 in 3.0 mi Calm Calm - N/A   Clear
1:55 AM 73.9 °F 70.9 °F 90% 30.00 in 2.5 mi Calm Calm - N/A   Scattered Clouds
2:14 AM 74.1 °F 70.7 °F 89% 29.99 in 10.0 mi SSW 4.6 mph - N/A   Scattered Clouds
2:35 AM 75.7 °F 70.7 °F 84% 29.99 in 10.0 mi SSW 6.9 mph - N/A   Scattered Clouds
2:55 AM 77.0 °F 70.2 °F 79% 29.99 in 10.0 mi SSW 5.8 mph - N/A   Scattered Clouds
3:15 AM 77.9 °F 69.8 °F 76% 29.99 in 10.0 mi SW 9.2 mph 17.3 mph N/A   Mostly Cloudy
3:35 AM 78.3 °F 69.8 °F 75% 30.00 in 10.0 mi SW 11.5 mph - N/A Rain Light Rain
3:55 AM 78.1 °F 69.8 °F 76% 29.99 in 10.0 mi SW 13.8 mph 18.4 mph N/A   Scattered Clouds
4:15 AM 78.1 °F 69.4 °F 75% 29.99 in 10.0 mi SW 9.2 mph 17.3 mph N/A   Scattered Clouds
4:35 AM 77.9 °F 69.4 °F 75% 29.99 in 10.0 mi SW 11.5 mph 16.1 mph N/A   Clear
4:55 AM 77.4 °F 69.1 °F 76% 29.99 in 10.0 mi SSW 10.4 mph 16.1 mph N/A   Clear
5:15 AM 77.2 °F 69.1 °F 76% 29.99 in 10.0 mi SW 10.4 mph 16.1 mph N/A   Clear
5:35 AM 77.0 °F 68.9 °F 76% 29.98 in 10.0 mi SW 9.2 mph - N/A   Mostly Cloudy
5:55 AM 77.2 °F 68.9 °F 76% 29.98 in 10.0 mi SW 10.4 mph 17.3 mph N/A   Scattered Clouds
6:15 AM 77.4 °F 68.9 °F 75% 29.99 in 10.0 mi SW 9.2 mph - N/A   Mostly Cloudy
6:35 AM 77.4 °F 68.9 °F 75% 29.99 in 10.0 mi SW 9.2 mph - N/A   Overcast
6:54 AM 77.5 °F 68.9 °F 75% 30.00 in 10.0 mi SW 10.4 mph - N/A   Mostly Cloudy
7:15 AM 77.4 °F 68.9 °F 75% 29.99 in 10.0 mi SW 9.2 mph 17.3 mph N/A   Scattered Clouds
7:35 AM 77.5 °F 68.9 °F 75% 29.99 in 10.0 mi SSW 5.8 mph - N/A   Scattered Clouds
7:55 AM 77.4 °F 69.1 °F 76% 29.99 in 10.0 mi South 5.8 mph - N/A   Scattered Clouds
8:15 AM 77.0 °F 70.0 °F 79% 29.99 in 7.0 mi South 4.6 mph - N/A   Scattered Clouds
8:35 AM 77.0 °F 69.8 °F 78% 30.00 in 10.0 mi SSW 5.8 mph - N/A   Mostly Cloudy
8:55 AM 76.6 °F 69.6 °F 79% 30.00 in 10.0 mi SW 6.9 mph - N/A   Overcast
9:15 AM 78.4 °F 69.1 °F 73% 30.01 in 10.0 mi SW 12.7 mph - N/A   Scattered Clouds
9:34 AM 78.8 °F 68.9 °F 72% 30.01 in 10.0 mi SW 11.5 mph 19.6 mph N/A   Scattered Clouds
9:55 AM 79.0 °F 69.1 °F 72% 30.01 in 10.0 mi SW 10.4 mph 17.3 mph N/A   Clear
10:15 AM 77.7 °F 68.9 °F 74% 30.02 in 10.0 mi SW 10.4 mph 17.3 mph N/A   Mostly Cloudy
10:34 AM 77.0 °F 68.9 °F 76% 30.04 in 10.0 mi WSW 11.5 mph 20.7 mph N/A   Overcast
10:55 AM 76.1 °F 70.0 °F 81% 30.05 in 7.0 mi WSW 12.7 mph 19.6 mph N/A Rain Light Rain
11:15 AM 73.8 °F 70.0 °F 88% 30.05 in 7.0 mi WSW 9.2 mph 17.3 mph N/A Rain Light Rain
11:34 AM 73.6 °F 70.2 °F 89% 30.04 in 7.0 mi SW 6.9 mph - N/A Rain Rain
11:55 AM 73.8 °F 70.0 °F 88% 30.05 in 7.0 mi SW 5.8 mph - N/A Rain Light Rain
12:15 PM 74.3 °F 70.7 °F 88% 30.05 in 7.0 mi WSW 6.9 mph - N/A   Mostly Cloudy
12:35 PM 75.4 °F 69.6 °F 82% 30.04 in 10.0 mi SW 9.2 mph - N/A   Mostly Cloudy
12:55 PM 74.1 °F 68.9 °F 84% 30.03 in 7.0 mi SW 10.4 mph 16.1 mph N/A Rain Light Rain
1:15 PM 74.5 °F 68.5 °F 82% 30.01 in 10.0 mi SW 15.0 mph 19.6 mph N/A   Mostly Cloudy
1:35 PM 74.5 °F 69.1 °F 83% 30.00 in 10.0 mi SSW 12.7 mph 18.4 mph N/A   Clear
1:55 PM 74.7 °F 68.5 °F 81% 30.01 in 10.0 mi SW 10.4 mph 23.0 mph N/A   Scattered Clouds
2:15 PM 74.3 °F 66.9 °F 78% 30.01 in 10.0 mi SW 11.5 mph - N/A   Mostly Cloudy
2:35 PM 74.7 °F 67.5 °F 78% 30.00 in 10.0 mi SSW 8.1 mph 17.3 mph N/A   Mostly Cloudy
2:55 PM 75.6 °F 67.6 °F 76% 29.99 in 10.0 mi SSW 9.2 mph 19.6 mph N/A   Overcast
3:15 PM 76.3 °F 66.7 °F 72% 29.99 in 10.0 mi SSW 8.1 mph 18.4 mph N/A   Overcast
3:35 PM 76.5 °F 66.9 °F 72% 29.99 in 10.0 mi SW 9.2 mph - N/A   Overcast
3:55 PM 78.3 °F 66.9 °F 68% 29.99 in 10.0 mi SW 9.2 mph 18.4 mph N/A   Overcast
4:14 PM 77.9 °F 66.6 °F 68% 29.98 in 10.0 mi SW 10.4 mph 16.1 mph N/A   Overcast
4:35 PM 78.3 °F 66.4 °F 67% 29.98 in 10.0 mi SW 9.2 mph 16.1 mph N/A   Overcast
4:55 PM 77.9 °F 66.9 °F 69% 29.97 in 10.0 mi WSW 8.1 mph - N/A   Overcast
5:14 PM 76.5 °F 66.2 °F 70% 29.98 in 10.0 mi WSW 6.9 mph - N/A   Overcast
5:35 PM 75.6 °F 66.6 °F 74% 29.98 in 10.0 mi WSW 5.8 mph - N/A   Overcast
5:55 PM 74.7 °F 67.3 °F 78% 29.98 in 10.0 mi Calm Calm - N/A   Overcast
6:14 PM 73.9 °F 68.4 °F 83% 29.98 in 10.0 mi WSW 3.5 mph - N/A Rain Light Rain
6:35 PM 73.4 °F 68.7 °F 85% 29.97 in 10.0 mi Calm Calm - N/A Rain Light Rain
6:55 PM 73.2 °F 70.2 °F 90% 29.97 in 10.0 mi Calm Calm - N/A   Overcast
7:14 PM 73.4 °F 70.5 °F 91% 29.97 in 10.0 mi NNE 4.6 mph - N/A   Overcast
7:35 PM 72.3 °F 70.3 °F 93% 29.97 in 4.0 mi Calm Calm - N/A Rain Light Rain
7:55 PM 72.9 °F 70.9 °F 93% 29.97 in 5.0 mi Calm Calm - N/A   Overcast
8:15 PM 73.9 °F 70.7 °F 90% 29.97 in 10.0 mi Calm Calm - N/A   Mostly Cloudy
8:35 PM 73.8 °F 70.9 °F 91% 29.97 in 10.0 mi Calm Calm - N/A   Scattered Clouds
8:55 PM 73.6 °F 70.7 °F 91% 29.97 in 10.0 mi Calm Calm - N/A   Mostly Cloudy
9:15 PM 73.4 °F 70.7 °F 91% 29.97 in 10.0 mi Calm Calm - N/A   Overcast
9:35 PM 73.0 °F 70.9 °F 93% 29.96 in 10.0 mi Calm Calm - N/A   Mostly Cloudy
9:55 PM 72.5 °F 70.9 °F 95% 29.97 in 7.0 mi Calm Calm - N/A   Mostly Cloudy
10:15 PM 72.5 °F 71.1 °F 95% 29.97 in 7.0 mi Calm Calm - N/A   Mostly Cloudy
10:35 PM 72.5 °F 70.7 °F 94% 29.98 in 7.0 mi Calm Calm - N/A   Mostly Cloudy
10:55 PM 71.2 °F 70.2 °F 96% 29.99 in 4.0 mi Calm Calm - N/A   Scattered Clouds
11:15 PM 70.9 °F 70.2 °F 98% 29.98 in 3.0 mi Calm Calm - N/A   Scattered Clouds
11:35 PM 70.3 °F 69.6 °F 98% 29.98 in 2.5 mi Calm Calm - N/A   Clear
11:55 PM 70.0 °F 69.3 °F 98% 29.99 in 2.5 mi Calm Calm - N/A   Clear